Wind_Speed
85 81 78 76 76 75 75 76 76 74 71 69 68 67 65 64 66 67 67 64 63 60 58 56 54 52 51 48 46 45 43 40 39 36 34 34 34 34 33 34 35 35 35
87 84 80 78 77 77 77 77 77 78 76 74 72 71 70 67 66 66 68 67 66 64 62 60 58 56 54 52 49 48 46 44 42 40 37 37 37 35 34 34 33 34 35
74 72 71 71 73 74 76 77 79 79 79 78 77 75 73 72 69 67 68 68 67 66 65 63 60 58 56 54 53 52 49 47 44 43 41 40 40 39 37 36 35 34 33
58 58 58 60 63 66 69 72 77 80 81 81 81 79 78 76 75 71 68 68 68 66 65 65 63 60 59 57 56 55 53 50 47 45 44 43 44 43 41 39 38 36 35
54 53 53 53 55 59 62 66 71 77 82 84 84 83 82 80 79 77 74 71 69 67 64 64 64 63 61 60 58 57 56 53 49 47 47 46 48 48 44 41 39 38 37
56 55 54 53 54 54 55 58 63 71 80 86 88 87 86 84 83 81 79 76 73 70 66 63 64 64 63 62 61 60 58 55 52 50 50 49 47 49 46 43 41 39 37
60 59 57 56 55 54 53 51 53 60 72 85 90 91 89 87 86 85 83 80 76 71 69 65 64 65 65 64 63 62 60 57 55 53 52 52 46 44 48 46 44 41 40
60 60 59 58 57 57 55 53 50 50 55 70 86 94 93 91 90 87 86 84 80 76 73 69 66 64 65 65 64 63 62 59 57 55 55 52 50 45 46 49 46 44 43
50 53 55 56 57 58 59 57 54 50 48 52 67 87 96 95 92 90 88 86 83 80 77 73 69 66 66 66 65 64 63 61 60 58 57 56 52 49 42 48 50 48 47
43 44 46 48 52 55 58 60 59 55 51 48 51 67 87 97 96 92 89 88 85 82 79 77 74 70 68 68 67 66 65 64 62 60 59 58 56 50 46 44 51 52 50
44 44 44 43 45 48 53 57 59 58 54 50 48 52 68 89 97 96 91 89 87 83 79 76 76 74 71 69 69 68 67 65 64 63 62 60 59 54 49 45 49 55 54
45 44 44 44 43 43 46 51 56 57 56 53 50 49 55 73 90 97 95 90 88 84 80 76 74 75 74 71 71 71 69 68 66 65 63 62 59 58 52 50 46 52 56
43 43 43 43 44 44 43 46 50 54 55 53 51 49 50 60 78 93 97 93 89 85 81 78 75 74 74 73 73 73 72 71 69 67 65 62 60 57 55 51 50 48 52
45 45 44 43 42 42 43 43 46 50 52 52 50 47 47 52 66 84 95 96 92 88 84 79 76 74 73 73 74 75 74 72 71 70 67 64 61 59 56 54 51 50 48
46 46 45 43 41 39 40 41 43 45 48 49 47 45 44 46 55 71 88 96 96 92 87 83 78 75 73 69 70 74 75 73 72 71 69 66 63 61 58 56 54 51 48
48 47 46 43 40 38 37 38 40 42 45 46 44 42 40 42 46 57 75 90 96 95 91 86 82 79 76 71 67 68 72 72 72 72 71 68 65 62 60 59 57 54 52
50 48 46 44 40 36 35 35 36 38 41 43 41 39 38 38 41 47 60 77 89 94 93 88 85 82 79 76 71 66 67 68 67 69 70 69 67 65 63 61 60 58 56
52 50 48 44 40 35 32 32 32 34 38 40 39 38 36 36 37 40 48 62 77 88 91 90 87 84 82 80 77 71 68 67 65 65 66 67 67 66 65 64 62 61 59
54 53 50 45 38 33 30 29 28 29 34 37 37 37 35 35 35 36 42 51 64 76 85 87 86 85 83 82 79 76 72 69 67 64 63 64 65 65 65 65 64 62 60
58 55 50 42 35 29 27 26 25 25 30 34 36 36 35 34 34 35 38 44 53 64 74 80 82 82 82 82 80 76 74 71 68 65 63 62 62 63 64 64 63 62 61
61 55 45 35 28 24 23 23 22 23 28 33 35 36 36 35 35 35 36 39 46 54 62 69 74 76 78 80 79 76 73 70 67 66 64 63 62 61 62 62 63 63 62
59 48 36 25 19 18 19 19 19 21 26 32 34 35 35 35 35 36 36 37 40 46 53 60 65 69 72 75 76 75 72 70 68 66 64 64 63 62 60 59 59 60 61
55 40 25 14 11 13 15 15 16 18 24 31 34 35 35 36 36 36 36 37 38 40 46 51 57 63 67 70 71 71 71 69 67 66 65 64 63 62 61 59 58 58 58
50 33 19 7 6 10 12 12 14 16 22 29 34 35 35 35 36 37 37 37 38 39 41 45 49 53 58 63 66 68 68 67 65 64 65 63 62 62 61 60 59 58 58
47 31 16 5 4 8 10 11 12 15 21 28 34 36 36 36 36 37 38 38 39 39 40 41 43 47 51 55 59 62 64 64 64 64 63 62 62 62 62 62 62 61 60
48 32 17 6 2 7 9 11 11 15 20 27 34 37 38 37 37 37 37 38 39 39 39 38 38 40 43 48 53 57 59 59 59 60 61 62 63 63 63 63 63 63 63
Wind_Direction
280 276 271 266 263 260 258 256 254 253 251 250 249 246 244 243 242 240 239 237 235 235 234 233 233 234 235 236 235 233 233 235 237 239 239 236 234 231 228 228 226 225 226
279 274 270 266 261 258 255 253 251 249 248 247 246 246 244 241 241 240 239 237 235 234 234 234 233 234 234 235 234 232 232 233 235 237 238 236 233 231 229 227 225 223 224
279 275 271 268 264 260 255 251 249 246 245 245 243 243 242 241 239 239 238 237 236 233 233 233 233 233 234 234 233 232 231 232 233 235 237 236 232 230 228 227 226 223 222
276 273 270 268 266 263 259 254 249 245 243 241 241 240 239 239 238 237 237 237 236 234 231 231 232 233 234 234 233 232 231 231 231 234 237 237 233 228 226 226 225 223 221
279 276 274 273 271 268 263 257 250 245 242 239 238 237 236 237 237 236 236 236 236 235 232 230 230 231 232 234 234 233 232 230 230 233 236 238 236 225 222 224 223 221 219
281 278 276 274 271 268 265 261 254 246 240 237 236 235 234 234 234 235 235 235 235 235 232 230 229 229 230 232 233 233 232 231 230 232 236 237 239 226 218 220 220 219 217
281 278 275 271 269 265 263 261 258 251 243 236 233 233 232 231 232 233 233 233 233 234 232 230 229 228 229 230 231 233 232 231 231 232 235 237 239 231 219 216 218 217 216
283 279 275 270 266 261 259 258 258 257 251 242 235 230 229 229 228 230 231 232 231 231 231 229 228 228 227 227 229 231 232 231 231 231 234 236 238 238 225 216 217 218 218
289 283 278 272 266 260 256 254 255 256 255 251 243 234 228 227 226 226 228 230 230 229 230 229 227 226 226 225 226 229 231 231 231 230 232 236 238 240 236 223 218 220 220
299 292 285 278 270 264 257 253 252 254 253 253 251 242 233 227 225 224 225 226 228 228 229 229 227 225 225 225 225 226 228 230 230 230 230 234 237 240 242 234 223 221 222
304 298 292 285 276 268 261 255 251 251 252 252 252 249 240 232 226 223 222 224 224 225 226 227 227 225 225 225 225 225 226 228 229 229 229 231 235 238 239 239 231 223 223
306 301 295 289 282 273 264 256 251 249 250 250 252 252 247 237 230 224 220 221 222 221 223 224 225 225 225 225 225 225 225 226 227 228 229 230 232 235 236 236 237 229 224
311 306 301 293 285 277 268 259 252 248 247 248 250 252 251 243 234 227 221 218 220 220 220 221 222 224 224 225 226 226 226 226 227 228 229 229 230 232 233 233 234 236 231
317 314 308 301 292 280 270 262 254 247 245 246 248 250 251 247 237 229 223 218 217 218 218 218 219 222 223 224 225 226 226 226 227 229 229 229 230 231 232 233 233 236 238
320 319 314 308 299 285 272 262 254 248 244 243 245 248 249 247 239 230 225 220 216 216 218 217 217 219 220 221 223 225 226 227 227 228 230 230 230 230 231 232 234 235 238
320 319 317 311 303 291 277 263 253 247 243 241 242 244 246 245 241 232 225 221 218 215 215 217 218 218 218 218 219 222 224 226 227 228 229 229 230 230 230 232 233 235 237
319 317 317 313 306 296 282 266 252 244 240 239 239 240 241 242 239 232 225 222 219 216 214 215 218 218 218 218 218 220 222 225 226 228 228 229 229 230 231 232 233 235 237
320 317 314 312 306 297 284 268 252 241 237 235 235 235 236 237 236 230 224 221 220 217 215 214 217 219 219 219 219 220 222 224 226 228 229 229 228 229 230 232 234 236 238
321 317 313 309 303 294 283 269 253 239 233 230 229 229 231 232 231 228 223 220 219 218 216 214 216 219 220 220 220 220 222 224 226 227 228 229 229 228 228 230 233 236 238
322 317 311 305 297 288 277 267 253 237 227 223 222 223 224 226 227 225 223 219 217 217 217 216 216 218 220 221 222 222 222 224 226 227 228 229 229 229 228 229 231 234 236
325 320 312 303 290 278 269 261 251 234 222 216 215 216 218 220 221 222 221 217 214 214 215 216 216 218 220 222 223 223 224 225 226 227 228 229 229 230 230 230 230 232 234
331 326 317 303 282 266 258 253 247 230 218 211 209 210 212 215 217 218 217 214 212 212 213 215 215 217 219 221 222 224 225 226 227 227 229 230 230 231 231 231 231 232 234
340 336 329 309 270 250 246 244 241 227 215 207 204 205 207 210 212 213 212 209 208 208 209 211 214 215 217 219 222 224 225 226 228 229 230 232 232 232 232 231 231 232 234
348 347 343 324 246 234 234 234 232 222 213 205 200 200 203 206 209 210 208 207 206 206 207 209 211 213 215 218 221 223 225 225 226 228 230 232 233 234 233 233 233 233 235
357 357 358 351 223 224 229 232 224 215 210 203 198 198 200 203 206 208 207 206 206 206 206 207 209 209 209 211 215 219 221 221 223 225 227 229 230 233 234 235 235 235 236
4 5 7 12 217 224 233 235 221 212 208 202 198 197 197 200 203 205 206 207 208 208 209 208 207 206 206 206 208 211 214 214 217 221 224 226 230 232 233 234 236 236 238
Height
5678 5676 5676 5678 5680 5684 5688 5692 5696 5701 5706 5711 5715 5721 5726 5731 5737 5742 5748 5755 5761 5765 5771 5777 5783 5788 5793 5798 5804 5809 5814 5818 5822 5826 5830 5833 5837 5840 5844 5847 5851 5854 5858
5649 5648 5647 5649 5652 5657 5661 5665 5670 5677 5683 5689 5696 5702 5708 5714 5720 5726 5732 5738 5745 5752 5758 5764 5771 5777 5782 5788 5793 5799 5804 5809 5814 5818 5822 5826 5829 5833 5837 5841 5844 5848 5851
5620 5620 5620 5621 5624 5628 5632 5638 5644 5651 5659 5666 5674 5681 5689 5696 5703 5709 5715 5722 5729 5738 5745 5751 5758 5765 5771 5777 5783 5788 5794 5800 5805 5809 5813 5817 5821 5826 5830 5834 5838 5842 5845
5598 5597 5596 5597 5598 5600 5604 5610 5616 5625 5633 5641 5650 5659 5667 5676 5685 5692 5699 5706 5713 5722 5730 5737 5745 5752 5759 5766 5772 5778 5784 5790 5795 5800 5804 5808 5813 5817 5822 5827 5831 5835 5839
5579 5577 5576 5576 5576 5576 5578 5582 5588 5597 5606 5614 5624 5634 5644 5655 5664 5674 5682 5690 5697 5705 5714 5722 5730 5738 5746 5753 5760 5767 5772 5779 5785 5790 5795 5799 5803 5807 5813 5819 5824 5829 5833
5561 5559 5557 5557 5556 5556 5556 5558 5562 5569 5577 5586 5597 5608 5621 5632 5642 5653 5663 5672 5681 5689 5699 5707 5715 5724 5732 5740 5747 5755 5761 5768 5775 5780 5785 5789 5792 5797 5804 5811 5817 5822 5826
5541 5539 5538 5537 5537 5538 5538 5539 5541 5544 5550 5558 5569 5582 5596 5608 5620 5631 5642 5653 5663 5673 5682 5691 5700 5709 5718 5726 5734 5742 5750 5757 5764 5770 5775 5780 5784 5789 5794 5802 5809 5815 5820
5519 5517 5516 5516 5517 5518 5520 5521 5523 5526 5528 5533 5542 5554 5570 5585 5593 5609 5620 5631 5643 5654 5663 5674 5684 5693 5703 5712 5721 5729 5737 5745 5752 5759 5765 5770 5775 5779 5785 5793 5800 5807 5813
5500 5497 5495 5495 5496 5498 5500 5503 5506 5509 5512 5515 5519 5528 5543 5556 5570 5586 5598 5611 5622 5633 5645 5656 5667 5677 5687 5697 5706 5715 5723 5732 5740 5747 5754 5760 5766 5771 5777 5785 5792 5798 5804
5486 5481 5478 5476 5476 5477 5480 5483 5488 5491 5495 5499 5501 5506 5516 5529 5545 5562 5576 5589 5602 5615 5627 5639 5650 5661 5672 5682 5691 5701 5710 5718 5727 5735 5743 5749 5756 5763 5770 5776 5782 5789 5795
5473 5468 5464 5460 5458 5458 5460 5463 5468 5472 5477 5481 5485 5488 5494 5504 5519 5537 5553 5566 5579 5594 5607 5620 5633 5645 5656 5666 5677 5686 5695 5704 5713 5721 5729 5737 5745 5752 5760 5766 5772 5779 5785
5460 5455 5450 5446 5443 5441 5442 5444 5448 5453 5458 5463 5467 5471 5474 5482 5495 5511 5529 5544 5558 5575 5588 5602 5615 5629 5641 5651 5661 5671 5681 5690 5699 5707 5715 5724 5732 5741 5749 5756 5761 5767 5774
5447 5441 5436 5431 5428 5426 5425 5426 5429 5434 5439 5445 5450 5453 5457 5462 5471 5486 5505 5523 5537 5554 5568 5583 5598 5611 5624 5635 5645 5655 5665 5675 5684 5692 5701 5711 5720 5729 5737 5744 5751 5756 5762
5435 5428 5421 5416 5412 5410 5409 5410 5412 5415 5421 5427 5432 5437 5441 5444 5450 5462 5481 5500 5517 5533 5548 5566 5580 5593 5606 5617 5628 5638 5650 5660 5670 5679 5688 5699 5708 5717 5725 5733 5740 5746 5752
5423 5415 5407 5401 5396 5393 5392 5393 5395 5399 5404 5410 5416 5421 5425 5429 5432 5441 5456 5475 5496 5513 5530 5548 5561 5575 5586 5599 5611 5623 5634 5645 5655 5665 5675 5686 5696 5705 5714 5721 5729 5735 5742
5411 5403 5395 5388 5382 5378 5376 5377 5380 5384 5388 5394 5400 5406 5411 5415 5419 5425 5436 5452 5472 5492 5511 5529 5543 5556 5569 5583 5596 5607 5618 5629 5640 5651 5661 5672 5683 5693 5701 5709 5717 5724 5731
5399 5390 5382 5375 5369 5364 5361 5362 5365 5369 5374 5380 5386 5393 5398 5402 5407 5412 5420 5434 5451 5471 5493 5512 5524 5539 5553 5567 5581 5592 5603 5615 5626 5636 5647 5658 5669 5679 5688 5696 5704 5712 5719
5386 5376 5368 5361 5355 5351 5348 5348 5351 5356 5361 5367 5374 5380 5387 5392 5397 5402 5409 5420 5434 5452 5474 5493 5508 5522 5536 5551 5565 5578 5590 5601 5612 5622 5632 5643 5654 5665 5674 5683 5691 5699 5706
5372 5361 5353 5346 5341 5338 5336 5336 5339 5344 5349 5355 5362 5370 5377 5383 5389 5395 5401 5409 5422 5438 5457 5476 5493 5507 5522 5535 5550 5564 5576 5587 5598 5608 5618 5629 5640 5650 5660 5669 5677 5685 5693
5355 5344 5334 5329 5326 5324 5324 5325 5327 5332 5338 5344 5352 5360 5368 5375 5381 5387 5393 5401 5413 5427 5442 5461 5478 5493 5507 5520 5534 5550 5563 5574 5585 5595 5605 5615 5626 5635 5646 5656 5665 5673 5679
5336 5323 5314 5311 5310 5311 5312 5314 5317 5322 5328 5334 5342 5351 5359 5367 5373 5379 5386 5395 5405 5417 5431 5447 5463 5477 5491 5505 5521 5536 5548 5560 5570 5580 5591 5602 5614 5624 5632 5641 5650 5658 5667
5319 5305 5297 5295 5297 5300 5302 5306 5308 5314 5319 5326 5334 5343 5352 5360 5367 5373 5381 5389 5398 5409 5422 5435 5449 5463 5476 5491 5505 5519 5533 5545 5557 5569 5579 5589 5599 5609 5619 5629 5637 5646 5654
5304 5292 5286 5285 5288 5291 5295 5299 5301 5306 5312 5319 5327 5336 5345 5353 5360 5368 5376 5384 5393 5403 5414 5425 5437 5449 5463 5479 5494 5508 5519 5531 5544 5556 5566 5576 5586 5596 5607 5616 5624 5633 5641
5296 5286 5281 5280 5283 5286 5289 5293 5296 5300 5305 5312 5321 5329 5338 5346 5354 5362 5371 5379 5388 5397 5407 5418 5430 5442 5454 5467 5481 5494 5506 5519 5531 5541 5552 5563 5573 5583 5593 5603 5612 5621 5629
5294 5284 5280 5279 5281 5283 5286 5288 5292 5295 5300 5307 5315 5323 5331 5339 5347 5356 5365 5374 5383 5391 5400 5410 5421 5432 5443 5456 5468 5480 5492 5505 5516 5526 5538 5548 5558 5569 5579 5588 5598 5607 5616
5294 5285 5281 5280 5280 5282 5284 5286 5288 5292 5296 5302 5309 5317 5325 5333 5341 5350 5359 5368 5377 5386 5395 5404 5414 5424 5434 5444 5455 5466 5479 5492 5503 5514 5525 5535 5544 5555 5564 5573 5583 5593 5602